Temp
61 61 61 61 61 62 62 63 64 64 64 63 63 62 62 63 63 63 63 63 63 63 63 63 64 64 64 64 64 64 63 63 63 63 63 62 62 61 61 61 61 62
61 61 61 61 61 61 62 63 63 63 63 63 63 62 62 62 63 63 62 63 63 63 63 63 63 64 63 63 63 63 63 62 62 63 62 62 61 61 62 61 61 61
60 60 61 61 61 61 61 61 62 62 62 62 62 62 62 63 62 62 62 63 63 62 62 62 63 63 64 63 63 63 63 62 62 62 62 62 61 61 61 61 60 61
61 61 61 61 61 61 61 61 61 61 61 61 61 62 62 63 62 62 62 64 62 62 61 62 63 63 64 63 63 63 63 62 63 62 61 60 61 61 60 60 60 60
61 61 61 61 62 62 61 61 61 60 61 61 61 62 62 61 61 61 61 62 62 61 61 61 62 62 63 63 63 62 62 61 61 62 61 60 60 61 60 60 60 60
61 61 61 62 62 62 61 61 61 61 61 60 61 61 61 62 61 61 61 61 60 61 61 61 61 61 62 62 62 62 61 61 61 62 61 61 60 60 61 61 60 60
61 61 61 62 62 61 61 61 61 61 61 61 61 60 61 61 61 61 62 61 61 61 61 61 61 61 61 61 62 61 61 62 61 62 62 60 60 60 61 61 61 60
61 62 62 62 61 61 60 61 61 61 61 61 61 61 61 61 62 61 61 61 61 61 61 61 61 61 60 61 61 60 60 61 61 61 61 60 60 60 60 60 60 60
61 61 61 61 61 61 61 61 61 60 61 61 60 60 61 61 61 60 61 62 62 61 61 61 61 61 60 61 61 61 60 60 61 61 61 59 60 60 60 60 60 59
61 61 61 61 60 61 61 61 61 60 61 61 61 60 60 60 61 61 61 61 62 61 61 61 60 60 60 61 61 61 61 60 60 60 61 61 61 60 60 60 60 59
60 60 60 60 60 61 61 61 61 60 60 61 60 60 60 60 60 61 62 62 61 61 61 61 61 60 60 59 60 60 61 60 60 60 60 60 61 61 61 60 60 60
59 59 59 59 60 60 60 60 60 60 60 60 61 60 60 60 61 61 62 62 62 62 62 61 60 60 60 60 59 59 59 60 60 60 60 60 60 60 60 60 60 59
59 59 59 59 59 59 60 60 60 60 60 60 60 60 60 60 60 61 61 62 61 61 61 61 60 59 59 59 59 59 59 59 59 59 59 60 60 60 60 60 60 59
59 59 60 60 59 59 59 60 60 60 60 60 60 60 60 61 61 61 59 60 59 59 58 59 58 58 57 58 59 59 59 58 59 59 59 59 59 59 59 59 59 60
60 60 60 60 60 60 59 59 59 60 60 59 59 60 61 60 60 59 58 57 56 56 56 56 57 56 56 58 58 58 58 58 59 59 59 58 58 58 57 57 56 56
59 59 59 59 59 59 59 59 60 59 59 59 59 59 58 59 59 58 57 56 55 54 54 54 52 50 50 51 54 58 58 58 58 59 59 58 57 56 55 55 55 56
59 59 59 58 59 59 59 59 59 59 58 58 58 57 57 57 57 56 55 55 55 54 53 51 48 48 44 41 47 51 58 58 58 58 58 58 57 57 55 55 55 56
57 58 58 58 59 59 59 59 59 58 58 57 56 56 55 56 55 55 54 53 53 53 51 50 48 44 41 41 44 48 53 58 58 58 57 56 57 56 56 56 56 56
55 57 58 58 58 59 58 58 57 57 56 56 56 55 56 55 54 53 53 53 53 52 50 50 49 42 42 42 44 46 48 54 58 58 57 55 56 57 56 56 56 55
54 56 56 57 57 56 56 56 56 55 55 55 54 53 54 53 53 52 52 52 52 52 50 49 48 44 42 43 45 45 46 51 57 57 57 57 56 56 56 55 55 55
53 55 55 55 55 55 55 54 53 52 52 52 51 51 52 52 52 51 51 51 51 51 50 48 47 42 42 43 44 45 47 50 57 57 56 55 54 54 54 54 53 54
52 54 53 53 53 52 52 51 51 50 49 49 49 49 48 49 50 51 50 50 51 51 51 49 47 42 42 44 45 46 48 56 56 54 53 53 52 52 53 53 53 53
50 51 52 52 51 50 49 49 48 48 48 48 47 46 46 46 47 48 49 50 50 50 50 48 47 43 42 44 45 46 49 54 53 52 51 50 49 49 49 51 52 52
49 50 50 50 50 49 48 47 47 46 46 47 46 45 45 45 46 47 47 48 48 48 49 49 47 43 42 43 45 46 50 54 53 51 50 49 48 47 46 46 49 51
48 49 49 49 48 47 47 46 46 45 46 46 45 45 45 45 45 46 46 47 47 48 50 48 47 46 43 43 44 46 51 53 52 51 49 48 47 46 46 46 46 46
45 47 48 49 48 47 47 46 46 45 45 45 45 44 44 44 45 44 44 44 45 45 45 46 46 45 43 42 44 46 47 54 53 51 49 47 48 49 48 47 47 47
MSLP
1015.04 1015.24 1015.53 1015.24 1014.84 1014.53 1014.60 1014.89 1015.12 1015.45 1015.60 1015.72 1015.84 1015.89 1016.01 1016.12 1016.21 1016.16 1016.48 1016.84 1017.09 1017.16 1017.24 1017.41 1017.53 1017.68 1017.84 1018.01 1018.12 1018.33 1018.57 1018.72 1018.89 1019.09 1019.33 1019.53 1019.80 1020.12 1020.41 1020.57 1020.65 1020.68
1015.45 1015.41 1015.33 1015.09 1014.72 1014.77 1014.80 1014.80 1015.01 1015.28 1015.53 1015.68 1015.77 1015.84 1015.97 1016.01 1016.09 1016.21 1016.28 1016.48 1016.92 1017.33 1017.45 1017.41 1017.41 1017.48 1017.68 1017.84 1017.97 1018.21 1018.45 1018.60 1018.84 1019.01 1019.28 1019.53 1019.68 1019.92 1020.12 1020.28 1020.36 1020.53
1015.12 1015.21 1015.16 1014.92 1014.92 1014.84 1014.60 1014.57 1014.77 1015.09 1015.41 1015.57 1015.65 1015.77 1015.84 1015.92 1016.09 1016.12 1016.21 1016.33 1016.48 1016.68 1017.24 1017.45 1017.28 1017.36 1017.48 1017.65 1017.89 1018.09 1018.28 1018.53 1018.80 1018.97 1019.16 1019.36 1019.57 1019.77 1019.92 1020.16 1020.33 1020.36
1014.68 1014.68 1014.80 1014.80 1014.89 1014.84 1014.68 1014.77 1014.92 1015.09 1015.28 1015.45 1015.48 1015.48 1015.57 1015.72 1015.92 1016.01 1016.09 1016.12 1016.28 1016.45 1016.60 1017.33 1017.48 1017.33 1017.41 1017.60 1017.80 1018.04 1018.21 1018.41 1018.53 1018.80 1019.09 1019.33 1019.48 1019.60 1019.84 1020.04 1020.21 1020.36
1014.48 1014.36 1014.41 1014.48 1014.57 1014.65 1014.80 1014.97 1015.12 1015.28 1015.24 1015.21 1015.24 1015.28 1015.41 1015.60 1015.80 1015.84 1015.89 1016.01 1016.16 1016.24 1016.41 1016.89 1017.77 1017.68 1017.48 1017.53 1017.77 1018.04 1018.24 1018.45 1018.60 1018.72 1018.92 1019.16 1019.41 1019.48 1019.72 1019.84 1020.01 1020.16
1014.57 1014.48 1014.45 1014.53 1014.48 1014.41 1014.53 1014.65 1014.77 1014.89 1014.92 1015.01 1015.01 1015.16 1015.24 1015.36 1015.60 1015.68 1015.77 1015.89 1016.21 1016.21 1016.33 1016.65 1017.77 1017.72 1017.48 1017.41 1017.65 1017.77 1018.04 1018.33 1018.53 1018.65 1018.84 1019.04 1019.33 1019.48 1019.57 1019.68 1019.84 1020.01
1014.33 1014.21 1014.53 1015.01 1014.97 1014.68 1014.48 1014.45 1014.36 1014.45 1014.45 1014.45 1014.72 1014.92 1015.09 1015.28 1015.45 1015.57 1015.68 1015.92 1016.09 1016.01 1016.21 1016.60 1017.24 1017.24 1017.33 1017.41 1017.57 1017.77 1017.97 1018.09 1018.33 1018.53 1018.80 1019.01 1019.24 1019.48 1019.53 1019.60 1019.72 1019.89
1014.36 1014.04 1014.48 1014.89 1014.84 1014.97 1014.97 1014.57 1014.24 1014.28 1014.28 1014.36 1014.53 1014.65 1014.92 1015.09 1015.28 1015.45 1015.57 1015.89 1015.84 1015.89 1016.12 1016.48 1016.89 1017.04 1017.21 1017.33 1017.48 1017.72 1017.92 1018.09 1018.28 1018.53 1018.72 1019.01 1019.21 1019.41 1019.57 1019.65 1019.72 1019.89
1014.57 1014.36 1014.04 1014.09 1014.60 1014.80 1014.60 1014.41 1014.33 1014.36 1014.33 1014.33 1014.45 1014.68 1014.89 1014.97 1015.12 1015.28 1015.53 1015.68 1015.65 1015.77 1016.01 1016.33 1016.60 1016.89 1017.09 1017.21 1017.45 1017.60 1017.89 1018.12 1018.21 1018.36 1018.60 1018.92 1019.16 1019.33 1019.48 1019.60 1019.72 1019.89
1014.45 1014.24 1013.92 1014.04 1014.21 1014.16 1014.24 1014.24 1014.21 1014.24 1014.28 1014.41 1014.48 1014.68 1014.92 1015.01 1015.01 1015.21 1015.45 1015.60 1015.65 1015.72 1015.89 1016.16 1016.53 1016.80 1017.04 1017.21 1017.33 1017.53 1017.77 1017.97 1018.16 1018.33 1018.48 1018.72 1018.97 1019.21 1019.41 1019.48 1019.60 1019.84
1014.16 1014.04 1013.92 1013.80 1013.84 1013.92 1014.09 1014.24 1014.36 1014.45 1014.41 1014.41 1014.48 1014.60 1014.72 1014.80 1014.97 1015.09 1015.33 1015.57 1015.72 1015.77 1015.84 1016.04 1016.33 1016.68 1017.01 1017.24 1017.36 1017.48 1017.60 1017.84 1018.09 1018.24 1018.41 1018.60 1018.80 1019.01 1019.21 1019.36 1019.53 1019.60
1013.97 1013.80 1013.68 1013.60 1013.65 1013.84 1014.01 1014.09 1014.12 1014.28 1014.33 1014.33 1014.33 1014.36 1014.60 1014.68 1014.80 1015.04 1015.16 1015.48 1015.68 1015.72 1015.60 1015.84 1016.21 1016.53 1016.84 1017.09 1017.28 1017.53 1017.68 1017.80 1017.92 1018.12 1018.28 1018.48 1018.72 1018.97 1019.16 1019.28 1019.45 1019.65
1013.80 1013.60 1013.45 1013.48 1013.53 1013.57 1013.60 1013.68 1013.89 1013.97 1014.09 1014.12 1014.16 1014.12 1014.36 1014.60 1014.80 1015.01 1015.16 1015.41 1015.60 1015.57 1015.57 1015.77 1016.12 1016.45 1016.77 1017.04 1017.24 1017.45 1017.60 1017.77 1018.01 1018.21 1018.36 1018.53 1018.68 1018.89 1019.12 1019.24 1019.36 1019.48
1013.60 1013.41 1013.24 1013.24 1013.36 1013.41 1013.41 1013.48 1013.68 1013.77 1013.80 1013.92 1014.09 1014.24 1014.48 1014.57 1014.65 1014.89 1015.16 1015.45 1015.57 1015.53 1015.65 1015.80 1016.12 1016.45 1016.77 1017.01 1017.16 1017.36 1017.53 1017.77 1017.97 1018.21 1018.45 1018.65 1018.84 1019.04 1019.12 1019.24 1019.28 1019.41
1013.45 1013.28 1013.24 1013.36 1013.45 1013.24 1013.24 1013.41 1013.48 1013.57 1013.60 1013.77 1013.92 1014.04 1014.24 1014.36 1014.60 1015.01 1015.33 1015.57 1015.68 1015.65 1015.77 1015.97 1016.12 1016.41 1016.65 1016.84 1017.16 1017.41 1017.48 1017.72 1017.97 1018.16 1018.36 1018.68 1018.97 1019.16 1019.36 1019.48 1019.60 1019.72
1013.45 1013.24 1013.12 1013.09 1012.97 1012.84 1013.09 1013.16 1013.28 1013.41 1013.48 1013.57 1013.80 1013.89 1014.12 1014.36 1014.65 1015.12 1015.33 1015.41 1015.65 1015.77 1015.97 1016.12 1016.33 1016.60 1016.80 1016.89 1016.92 1017.09 1017.41 1017.68 1017.97 1018.16 1018.36 1018.60 1018.89 1019.21 1019.48 1019.72 1019.80 1019.92
1013.53 1013.21 1013.01 1012.80 1012.68 1012.89 1012.92 1012.92 1012.97 1013.12 1013.41 1013.48 1013.65 1013.68 1014.01 1014.48 1014.84 1015.01 1015.12 1015.28 1015.33 1015.57 1015.97 1016.24 1016.57 1016.97 1017.16 1017.12 1017.01 1017.04 1017.24 1017.60 1017.89 1018.33 1018.48 1018.65 1018.80 1018.97 1019.41 1019.80 1020.12 1020.21
1013.84 1013.33 1013.01 1012.84 1012.65 1012.57 1012.65 1012.68 1012.72 1012.80 1013.12 1013.33 1013.65 1013.80 1014.09 1014.53 1015.01 1015.21 1015.21 1015.21 1015.53 1015.92 1016.12 1016.41 1016.68 1017.21 1017.28 1017.24 1017.12 1017.04 1017.21 1017.53 1017.89 1018.24 1018.60 1018.72 1018.89 1019.16 1019.53 1019.80 1020.01 1020.16
1013.97 1013.36 1012.97 1012.80 1012.68 1012.48 1012.60 1012.72 1012.68 1012.84 1013.09 1013.45 1013.77 1013.97 1014.21 1014.72 1015.28 1015.41 1015.33 1015.48 1015.60 1015.97 1016.41 1016.72 1016.92 1017.28 1017.16 1017.24 1017.21 1017.16 1017.33 1017.53 1017.92 1018.24 1018.57 1019.04 1019.16 1019.21 1019.48 1019.80 1020.01 1020.21
1014.12 1013.41 1012.97 1012.80 1012.72 1012.80 1012.89 1012.97 1013.04 1013.16 1013.33 1013.45 1013.77 1014.04 1014.33 1015.04 1015.53 1015.57 1015.65 1015.77 1016.01 1016.24 1016.65 1017.01 1017.09 1017.28 1017.16 1017.28 1017.41 1017.41 1017.53 1017.72 1018.21 1018.53 1018.84 1019.12 1019.33 1019.48 1019.68 1019.92 1020.12 1020.28
1014.53 1013.84 1013.33 1013.28 1013.24 1013.12 1013.16 1013.24 1013.48 1013.77 1014.04 1014.33 1014.41 1014.65 1014.84 1015.21 1015.68 1015.77 1015.92 1016.12 1016.36 1016.53 1016.77 1017.16 1017.41 1017.41 1017.33 1017.53 1017.68 1017.72 1017.84 1018.01 1018.45 1018.84 1019.24 1019.57 1019.80 1019.97 1020.12 1020.28 1020.45 1020.48
1015.16 1014.53 1014.16 1013.92 1014.12 1014.28 1014.04 1014.01 1014.12 1014.41 1014.72 1014.89 1014.97 1015.16 1015.72 1016.16 1016.16 1016.01 1016.12 1016.45 1016.68 1016.68 1016.72 1017.21 1017.72 1017.72 1017.65 1017.53 1017.68 1017.84 1018.04 1018.41 1018.77 1019.21 1019.77 1020.12 1020.45 1020.65 1020.72 1020.80 1020.89 1020.97
1015.92 1015.41 1015.01 1014.65 1014.65 1015.24 1015.45 1015.12 1014.97 1015.09 1015.24 1015.36 1015.65 1016.01 1016.36 1017.04 1017.21 1016.77 1016.72 1016.89 1017.09 1017.21 1017.21 1017.77 1018.09 1018.28 1018.12 1017.84 1017.68 1017.89 1018.28 1018.84 1019.24 1019.68 1020.12 1020.48 1020.84 1021.09 1021.24 1021.36 1021.24 1021.33
1016.77 1016.33 1016.01 1015.89 1015.41 1015.45 1016.12 1016.36 1016.04 1015.84 1016.09 1016.21 1016.48 1016.65 1017.04 1017.45 1017.84 1017.33 1017.41 1017.57 1017.65 1017.68 1017.65 1017.72 1018.33 1018.57 1018.48 1018.33 1018.21 1018.16 1018.21 1018.89 1019.45 1019.84 1020.45 1020.77 1021.24 1021.45 1021.53 1022.04 1022.21 1021.68
1017.57 1017.12 1016.89 1016.84 1016.84 1016.33 1016.57 1016.80 1016.65 1016.77 1016.80 1016.92 1017.24 1017.28 1017.60 1017.77 1018.45 1017.77 1017.92 1018.28 1018.45 1018.28 1018.28 1018.48 1018.89 1018.97 1018.72 1018.60 1018.57 1018.65 1018.72 1019.12 1019.57 1020.01 1020.68 1021.21 1021.28 1021.68 1022.01 1022.33 1022.65 1022.41
1018.48 1018.01 1017.77 1017.53 1017.53 1017.48 1017.28 1017.36 1017.04 1017.12 1017.33 1017.53 1017.92 1018.04 1018.21 1018.60 1018.97 1018.41 1018.60 1019.04 1019.01 1019.16 1019.28 1019.45 1019.48 1019.57 1019.36 1019.01 1018.97 1019.12 1019.16 1019.24 1019.57 1019.89 1020.77 1021.36 1021.60 1021.68 1022.12 1022.65 1022.77 1022.72
Wind_Speed
7 5 5 8 9 10 8 7 6 7 7 5 6 6 7 7 7 7 6 4 4 6 6 6 6 6 6 7 7 6 6 7 6 6 7 7 6 7 7 7 7 7
4 2 5 7 6 2 4 7 7 7 6 5 5 5 5 5 5 6 7 7 5 3 4 5 6 7 7 7 7 7 6 6 7 5 7 8 7 7 7 8 8 6
3 4 7 9 6 5 7 6 5 5 5 6 5 5 5 5 5 6 6 6 7 8 5 6 6 6 7 7 7 7 6 7 7 6 7 8 6 7 6 7 6 7
9 9 8 7 3 4 4 3 3 3 3 5 7 7 6 6 6 7 6 7 7 7 7 5 6 6 6 7 7 6 7 7 7 7 6 5 5 6 6 6 5 5
9 9 7 5 3 3 3 4 3 3 5 7 6 6 6 5 6 7 7 6 6 6 5 5 3 5 5 6 6 6 6 6 6 6 7 6 5 6 5 6 6 6
7 6 3 4 5 6 7 9 10 9 8 7 7 6 6 7 7 7 7 7 6 6 6 6 6 7 7 6 7 7 7 6 6 6 7 6 5 4 5 6 6 6
7 5 0 2 6 7 7 6 5 6 8 8 6 7 7 7 7 7 8 7 7 7 8 8 7 6 5 6 6 6 5 6 6 6 6 5 5 5 5 6 6 6
8 5 2 6 10 7 5 8 8 7 7 6 8 7 7 8 8 7 7 6 7 6 7 7 7 7 6 6 6 6 5 4 6 6 6 5 5 6 5 4 5 6
5 7 9 12 8 8 10 8 5 4 5 7 7 6 6 7 7 7 6 6 6 6 7 7 7 7 6 6 6 7 7 6 6 7 7 6 6 5 5 5 6 5
3 8 11 9 8 8 8 7 5 5 5 6 6 5 6 5 6 6 5 5 5 6 7 7 7 6 6 6 7 7 7 7 6 6 6 7 7 6 6 6 6 6
4 6 7 8 8 6 6 5 3 3 5 6 6 7 6 7 5 5 5 5 5 7 7 8 8 8 7 6 5 6 7 7 7 6 6 6 6 7 6 6 6 7
5 5 6 7 6 5 6 7 6 7 7 5 7 8 7 6 6 6 6 6 6 7 8 8 7 7 7 7 7 6 5 6 6 6 6 6 6 6 6 6 6 6
5 6 7 6 5 5 6 6 7 7 8 8 6 7 8 7 5 5 4 5 6 6 7 8 7 6 6 6 6 6 7 7 6 6 6 5 5 6 6 6 6 6
7 5 6 6 3 5 7 7 7 8 8 6 6 7 6 6 7 6 4 4 5 5 6 6 6 6 5 6 6 6 6 6 7 7 7 6 6 5 5 5 6 6
7 6 5 4 4 7 7 8 8 8 8 7 7 7 6 7 6 6 7 6 5 6 7 5 6 5 5 6 6 5 6 7 7 8 7 7 6 5 4 4 4 4
7 6 6 6 9 10 8 9 9 9 8 8 7 6 6 7 8 6 6 7 7 6 6 5 4 3 2 5 7 7 7 6 7 8 8 8 8 7 5 5 5 4
7 6 7 8 8 8 8 9 10 9 7 7 7 7 8 7 7 8 8 7 8 8 7 5 3 2 2 3 8 11 8 8 8 7 7 8 8 9 7 7 6 6
8 6 7 7 8 8 8 9 9 9 9 8 7 7 8 7 6 5 7 7 7 7 6 5 4 3 1 4 9 12 10 9 8 8 7 7 8 8 7 7 8 7
10 7 6 6 7 8 4 6 7 7 7 7 6 7 8 7 6 6 7 7 8 8 6 5 4 3 4 7 10 12 13 10 7 8 8 7 6 8 8 8 7 7
11 8 3 3 3 2 4 4 5 6 5 5 7 7 8 7 5 6 7 7 7 8 7 4 4 3 7 10 10 13 13 11 8 8 7 7 6 6 6 6 6 7
11 9 6 7 4 3 5 5 6 6 7 6 6 6 6 7 7 7 7 7 7 7 7 5 4 5 10 12 12 14 14 11 9 8 8 8 7 7 6 6 5 5
12 10 8 10 11 9 6 7 8 8 8 6 7 8 8 5 4 6 8 8 7 7 8 8 6 8 11 14 15 16 15 9 10 10 9 9 9 8 8 6 6 7
12 11 9 8 11 11 9 8 9 9 9 7 9 9 9 8 6 6 7 7 7 6 9 8 7 7 9 13 17 17 13 9 10 8 8 9 9 8 8 7 6 6
12 11 11 9 9 11 9 8 8 9 10 9 9 9 9 8 5 6 9 8 8 8 7 10 8 7 8 9 11 13 13 11 7 8 8 8 7 8 10 9 8 13
11 12 11 10 8 9 9 8 10 10 9 10 9 9 9 8 4 6 10 9 8 10 14 11 7 7 10 11 12 11 11 9 8 8 9 7 8 9 9 8 6 9
11 12 12 10 9 8 7 7 8 10 10 11 10 9 9 9 5 9 11 9 9 10 10 9 8 7 9 12 11 11 10 10 8 10 10 9 7 7 7 5 5 5
Wind_Direction
213 212 182 193 196 205 205 208 209 217 223 218 209 201 185 175 177 172 168 178 200 198 195 188 180 175 171 174 174 171 178 183 178 168 177 176 181 169 177 178 180 186
269 255 216 220 223 144 189 205 207 209 223 219 221 208 207 185 179 178 175 166 168 223 232 205 189 179 174 172 172 173 176 176 177 165 167 177 180 177 184 183 183 173
240 224 225 224 219 191 195 201 199 202 206 212 217 215 206 198 183 178 174 170 173 172 195 229 198 188 177 173 171 168 171 173 174 166 164 176 168 178 182 172 172 176
216 212 215 231 231 205 203 196 207 202 200 205 209 208 199 197 187 181 170 176 176 175 172 185 222 186 179 172 163 166 171 177 172 159 155 148 168 163 160 158 154 156
214 221 211 195 184 205 201 210 220 210 214 219 209 202 195 190 186 175 165 170 179 165 153 149 208 210 178 164 162 160 167 160 158 156 150 154 164 158 156 151 152 153
243 240 207 199 206 196 195 195 194 200 204 208 204 190 193 185 188 177 170 170 170 165 152 141 179 191 176 161 160 168 156 156 162 154 151 155 157 156 149 152 148 149
266 249 144 282 250 230 228 231 218 192 195 198 174 186 179 182 185 179 172 176 172 163 154 156 179 163 160 154 154 151 161 155 156 152 153 148 147 146 149 150 150 144
253 269 133 191 221 227 218 224 212 201 192 176 186 181 176 179 185 179 167 182 172 157 154 155 165 159 152 155 154 151 155 152 152 154 146 141 148 149 149 149 143 138
213 221 223 217 206 196 211 218 218 201 188 184 183 173 181 179 177 169 170 189 168 159 151 155 158 155 160 159 159 159 160 162 164 160 149 145 149 156 151 141 134 130
225 207 226 226 204 206 212 218 202 197 190 190 177 159 172 185 159 161 169 181 171 161 155 153 147 151 162 169 166 166 162 162 164 158 148 151 154 154 151 151 148 141
251 217 223 225 222 219 214 214 222 209 201 189 166 172 181 166 162 159 170 174 177 172 158 149 154 157 161 167 171 168 163 159 159 152 148 151 154 158 159 151 153 159
274 240 232 221 201 194 187 193 185 205 205 195 179 175 170 169 163 171 171 182 180 176 158 152 155 161 164 169 166 160 157 155 150 146 145 147 147 144 147 147 149 154
268 244 236 212 195 181 183 190 193 191 192 191 190 172 163 161 159 161 168 172 180 167 150 149 154 155 157 155 157 158 156 147 133 127 131 134 128 133 138 140 145 148
270 243 239 247 206 185 190 190 184 188 189 176 163 162 168 168 162 155 146 148 159 138 128 132 134 136 142 151 156 157 147 135 134 128 120 113 105 116 130 145 160 164
267 262 239 218 209 214 197 191 190 189 180 170 168 161 164 158 131 133 131 118 99 110 114 116 131 142 152 152 145 139 137 133 135 131 129 121 112 106 88 88 80 86
265 252 233 214 210 210 196 189 191 187 185 169 166 149 133 133 131 134 136 132 124 104 98 105 106 73 75 161 158 148 136 126 127 135 134 133 128 111 89 69 73 74
289 246 232 225 221 209 197 186 183 179 173 165 157 143 131 126 133 144 138 136 129 124 116 103 83 74 59 190 147 136 130 131 133 134 136 135 134 129 122 110 96 90
311 268 235 224 228 215 196 186 177 167 163 156 142 130 124 121 131 146 129 121 105 103 105 107 101 55 121 197 157 138 133 131 132 131 134 134 134 125 123 121 115 104
319 290 237 223 223 223 184 168 169 150 147 137 133 128 117 120 137 133 120 116 116 116 104 84 83 38 145 171 159 137 130 126 120 128 125 122 125 122 122 122 122 110
334 320 305 246 205 182 132 153 138 139 133 129 127 122 113 113 123 121 117 111 111 111 96 75 74 38 136 151 144 126 118 110 108 106 103 100 96 94 100 101 108 111
344 341 29 28 12 93 111 100 96 82 74 71 84 78 98 126 139 128 110 108 108 108 105 77 27 72 125 127 121 112 106 103 102 97 90 80 73 75 74 72 60 81
356 1 26 47 36 16 49 76 77 75 73 67 70 78 60 45 65 99 107 105 110 113 105 85 48 77 127 125 119 113 105 101 103 97 91 81 71 59 61 62 70 81
5 10 15 50 69 44 19 47 70 71 70 66 75 65 67 39 7 63 70 83 76 71 91 78 59 58 103 122 122 116 104 107 102 92 87 88 77 61 51 45 56 70
11 12 22 18 55 84 70 42 47 65 61 59 67 74 66 54 349 62 59 53 60 69 75 92 75 52 78 92 103 111 118 115 107 100 91 91 87 82 83 55 34 65
10 21 23 27 22 63 71 71 75 63 72 69 64 64 65 58 359 63 70 56 50 61 65 66 65 53 65 81 89 101 106 109 109 105 98 94 97 85 70 81 55 52
9 22 21 30 37 33 59 71 82 79 67 76 66 59 61 51 29 57 65 56 51 50 53 50 55 45 39 65 81 85 106 114 115 110 108 96 80 92 97 82 63 63